Weather History for Alamosa, CO

Change the Weather History Date:

Monday, October 8, 2012

  Actual Average Record
Temperature  
Mean Temperature 39 °F 46 °F  
Max Temperature 65 °F 65 °F 78 °F (1945)
Min Temperature 13 °F 27 °F 11 °F (1992)
Degree Days  
Heating Degree Days 26 19  
Month to date heating degree days 140 139  
Since 1 July heating degree days 496 570  
Cooling Degree Days 0 0  
Month to date cooling degree days 0 0  
Year to date cooling degree days 115 51  
Moisture  
Dew Point 8 °F    
Average Humidity 42    
Maximum Humidity 73    
Minimum Humidity 10    
Precipitation  
Precipitation 0.00 in 0.02 in 1.20 in (1938)
Month to date precipitation 0.00 0.17  
Year to date precipitation 4.32 6.03  
Snow  
Snow 0.00 in 0.00 in 1.90 in (1970)
Month to date snowfall 0.0 0.2  
Since 1 July snowfall 0.0 0.2  
Since 1 September snowfall 0.0 0.2  
Snow Depth 0.00 in    
Sea Level Pressure  
Sea Level Pressure 30.08 in    
Wind  
Wind Speed 5 mph (WSW)    
Max Wind Speed 20 mph    
Max Gust Speed 24 mph    
Visibility 10 miles    
Events      
T = Trace of Precipitation, MM = Missing Value Source: NWS Daily Summary

Daily Weather History Graph

Daily Weather History Graph

Search for Another Location

Airport:

Trip Planner

Search our weather history database for the weather conditions in past years. The results will help you decide how hot, cold, wet, or windy it might be!

Date:

Astronomy

Oct. 08, 2012 Rise Set
Actual Time 7:05 AM MDT 6:35 PM MDT
Civil Twilight 6:39 AM MDT 7:01 PM MDT
Nautical Twilight 6:09 AM MDT 7:31 PM MDT
Astronomical Twilight 5:38 AM MDT 8:02 PM MDT
Moon No Moon Rise 2:19 PM MDT (10/8)
Length of Visible Light 12h 22m
Length of Day
11h 29m
Last Quarter, 46% of the Moon is Illuminated
Oct 8
Last Quarter
Oct 15
New
Oct 21
First Quarter
Oct 29
Full
Nov 6
Last Quarter

Hourly Weather History & Observations

Time (MDT) Temp. Windchill Dew Point Humidity Pressure Visibility Wind Dir Wind Speed Gust Speed Precip Events Conditions
12:52 AM 25.0 °F 17.1 °F 12.0 °F 58% 30.12 in 10.0 mi West 6.9 mph - N/A   Clear
1:52 AM 25.0 °F 17.1 °F 12.0 °F 58% 30.11 in 10.0 mi West 6.9 mph - N/A   Clear
2:52 AM 21.9 °F 13.4 °F 10.0 °F 60% 30.12 in 10.0 mi West 6.9 mph - N/A   Clear
3:52 AM 19.9 °F 14.9 °F 10.0 °F 65% 30.12 in 10.0 mi West 3.5 mph - N/A   Clear
4:52 AM 17.1 °F - 7.0 °F 65% 30.14 in 10.0 mi Calm Calm - N/A   Clear
5:52 AM 14.0 °F 8.2 °F 6.1 °F 71% 30.17 in 10.0 mi South 3.5 mph - N/A   Clear
6:52 AM 16.0 °F 10.4 °F 5.0 °F 62% 30.22 in 10.0 mi WSW 3.5 mph - N/A   Clear
7:52 AM 21.9 °F - 7.0 °F 53% 30.22 in 10.0 mi Calm Calm - N/A   Clear
8:52 AM 30.9 °F 27.5 °F 8.1 °F 38% 30.20 in 10.0 mi East 3.5 mph - N/A   Clear
9:52 AM 41.0 °F - 8.1 °F 26% 30.15 in 10.0 mi Calm Calm - N/A   Clear
10:52 AM 48.9 °F - 6.1 °F 18% 30.13 in 10.0 mi Calm Calm - N/A   Clear
11:52 AM 54.0 °F - 3.9 °F 13% 30.07 in 10.0 mi Variable 4.6 mph - N/A   Clear
12:52 PM 55.0 °F - 3.0 °F 12% 30.07 in 10.0 mi Variable 4.6 mph - N/A   Clear
1:52 PM 57.0 °F - 1.9 °F 11% 30.02 in 10.0 mi Variable 5.8 mph - N/A   Clear
2:52 PM 59.0 °F - 5.0 °F 12% 29.99 in 10.0 mi SSE 6.9 mph - N/A   Clear
3:52 PM 63.0 °F - 6.1 °F 11% 29.96 in 10.0 mi WNW 4.6 mph - N/A   Clear
4:52 PM 63.0 °F - 7.0 °F 11% 29.96 in 10.0 mi Calm Calm - N/A   Clear
5:52 PM 62.6 °F - 10.4 °F 13% 30.04 in 10.0 mi West 11.5 mph - N/A   Clear
6:52 PM 55.0 °F - 10.9 °F 17% 30.03 in 10.0 mi West 15.0 mph - N/A   Clear
7:52 PM 53.1 °F - 12.0 °F 20% 30.03 in 10.0 mi West 11.5 mph - N/A   Clear
8:52 PM 48.0 °F - 12.0 °F 24% 30.03 in 10.0 mi West 3.5 mph - N/A   Clear
9:52 PM 43.0 °F - 10.9 °F 27% 30.03 in 10.0 mi Calm Calm - N/A   Clear
10:52 PM 32.0 °F 27.5 °F 9.0 °F 38% 30.05 in 10.0 mi ESE 4.6 mph - N/A   Clear
11:52 PM 28.9 °F 21.9 °F 6.1 °F 38% 30.03 in 10.0 mi East 6.9 mph - N/A   Clear